EW0415 Weather Reports


time (UTC)temp
F
wind
direction
speed
knots
gust
knots
rain 1hr
in
rain 24hr
in
rain mn
in
humidity
%
barometer
mb
20260903012015 60 271 3.5 9.6 0.00 0.00 0.00 81 1020.1
20260903011535 60 265 3.5 9.6 0.00 0.00 0.00 81 1020.1
20260903011021 60 265 3.5 8.7 0.00 0.00 0.00 81 1020.1
20260903010519 60 264 2.6 7.0 0.00 0.00 0.00 82 1020.0
20260903010032 60 336 3.5 8.7 0.00 0.00 0.00 82 1020.1
20260903005518 60 318 2.6 9.6 0.00 0.00 0.00 82 1020.3
20260903005020 60 266 2.6 9.6 0.00 0.00 0.00 82 1020.2
20260903004532 60 312 2.6 7.8 0.00 0.00 0.00 83 1020.2
20260903004018 60 309 2.6 8.7 0.00 0.00 0.00 83 1020.1
20260903003520 59 318 3.5 8.7 0.00 0.00 0.00 83 1020.3
20260903003032 59 304 3.5 9.6 0.00 0.00 0.00 84 1020.2
20260903002521 59 325 4.3 9.6 0.00 0.00 0.00 84 1020.2
20260903002020 59 292 3.5 8.7 0.00 0.00 0.00 84 1020.3
20260903001533 59 296 2.6 9.6 0.00 0.00 0.00 84 1020.3
20260903001022 59 301 2.6 9.6 0.00 0.00 0.00 84 1020.3
20260903000519 59 317 2.6 10.4 0.00 0.00 0.00 85 1020.3
20260903000036 58 302 4.3 10.4 0.00 0.00 0.00 85 1020.3
20260902235518 58 315 2.6 8.7 0.00 0.00 0.00 85 1020.3
20260902235019 58 320 2.6 8.7 0.00 0.00 0.00 85 1020.2
20260902234533 58 327 3.5 11.3 0.00 0.00 0.00 85 1020.1
20260902234018 58 313 3.5 11.3 0.00 0.00 0.00 86 1020.1
20260902233520 57 284 3.5 9.6 0.00 0.00 0.00 86 1020.0
20260902233033 57 333 2.6 9.6 0.00 0.00 0.00 86 1019.9
20260902232519 57 308 3.5 9.6 0.00 0.00 0.00 86 1020.0
20260902232019 56 298 2.6 7.0 0.00 0.00 0.00 86 1019.9
20260902231534 55 314 0.9 4.3 0.00 0.00 0.00 86 1019.9
20260902231018 55 324 0.0 3.5 0.00 0.00 0.00 86 1019.8
20260902230518 55 323 0.9 3.5 0.00 0.00 0.00 86 1019.7
20260902230034 55 323 0.0 3.5 0.00 0.00 0.00 85 1019.8
20260902225516 54 323 0.9 4.3 0.00 0.00 0.00 85 1019.7
20260902225018 54 0 1.7 4.3 0.00 0.00 0.00 85 1019.6
20260902224542 54 331 0.9 3.5 0.00 0.00 0.00 85 1019.7
20260902224017 54 332 0.0 3.5 0.00 0.00 0.00 85 1019.6
20260902223521 53 332 0.9 3.5 0.00 0.00 0.00 85 1019.5
20260902223036 53 331 0.0 2.6 0.00 0.00 0.00 85 1019.3
20260902222522 53 0 0.0 2.6 0.00 0.00 0.00 85 1019.3
20260902222022 53 0 0.0 2.6 0.00 0.00 0.00 84 1019.2
20260902221540 53 0 0.0 3.5 0.00 0.00 0.00 84 1019.2
20260902221019 53 331 0.0 3.5 0.00 0.00 0.00 84 1019.0
20260902220517 53 331 0.0 4.3 0.00 0.00 0.00 84 1019.0
20260902220044 53 0 0.0 4.3 0.00 0.00 0.00 84 1018.9
20260902215518 53 331 0.9 3.5 0.00 0.00 0.00 84 1018.9
20260902215015 53 324 0.9 3.5 0.00 0.00 0.00 84 1018.8
20260902214535 53 324 0.9 3.5 0.00 0.00 0.00 84 1018.8
20260902214016 53 0 0.0 4.3 0.00 0.00 0.00 84 1018.6
20260902213515 53 0 0.9 4.3 0.00 0.00 0.00 83 1018.6
20260902213033 53 0 0.0 3.5 0.00 0.00 0.00 83 1018.5
20260902212521 53 0 0.9 3.5 0.00 0.00 0.00 83 1018.4
20260902212019 53 321 0.9 4.3 0.00 0.00 0.00 83 1018.4
20260902211535 53 321 0.9 4.3 0.00 0.00 0.00 83 1018.3
20260902211019 53 321 0.9 4.3 0.00 0.00 0.00 83 1018.2
20260902210518 53 320 0.0 4.3 0.00 0.00 0.00 83 1018.3
20260902210106 53 319 0.9 4.3 0.00 0.00 0.00 83 1018.2
20260902205518 53 316 0.9 4.3 0.00 0.00 0.00 82 1018.1
20260902205019 54 314 0.9 3.5 0.00 0.00 0.00 82 1018.0
20260902204541 54 313 0.9 3.5 0.00 0.00 0.00 82 1017.9
20260902204019 54 310 0.0 3.5 0.00 0.00 0.00 82 1017.8
20260902203516 55 310 0.9 3.5 0.00 0.00 0.00 82 1017.9
20260902203036 55 309 0.9 6.1 0.00 0.00 0.00 82 1017.9
20260902202518 56 307 0.9 6.1 0.00 0.00 0.00 83 1017.9
20260902202021 56 304 1.7 6.1 0.00 0.00 0.00 83 1017.7
20260902201536 56 0 1.7 4.3 0.00 0.00 0.00 83 1017.6
20260902201018 55 300 1.7 7.0 0.00 0.00 0.00 83 1017.6
20260902200519 55 302 2.6 7.0 0.00 0.00 0.00 83 1017.6
20260902200037 55 0 1.7 7.0 0.00 0.00 0.00 82 1017.6
20260902195518 55 289 0.9 7.0 0.00 0.00 0.00 82 1017.3
20260902195018 55 288 0.9 7.0 0.00 0.00 0.00 82 1017.3
20260902194536 55 286 1.7 6.1 0.00 0.00 0.00 81 1017.2
20260902194015 55 284 1.7 6.1 0.00 0.00 0.00 81 1017.2
20260902193520 55 296 1.7 7.0 0.00 0.00 0.00 81 1017.1
20260902193035 55 292 1.7 7.8 0.00 0.00 0.00 81 1017.2
20260902192519 55 289 1.7 7.8 0.00 0.01 0.00 80 1017.1
20260902192019 55 290 2.6 7.8 0.00 0.01 0.00 80 1016.9
20260902191539 56 297 0.9 7.8 0.00 0.01 0.00 80 1016.9
20260902191018 56 294 1.7 7.8 0.00 0.01 0.00 79 1016.7
20260902190517 56 298 2.6 7.8 0.00 0.01 0.00 79 1016.7
20260902190040 56 307 1.7 7.8 0.00 0.01 0.00 79 1016.6
20260902185518 56 311 1.7 7.8 0.00 0.01 0.00 79 1016.6
20260902185015 56 275 2.6 7.0 0.00 0.01 0.00 79 1016.5
20260902184536 56 311 2.6 7.0 0.00 0.01 0.00 78 1016.6
20260902184021 56 294 2.6 7.0 0.00 0.01 0.00 78 1016.5
20260902183515 56 284 1.7 8.7 0.00 0.01 0.00 78 1016.6
20260902183035 56 255 2.6 10.4 0.00 0.01 0.00 78 1016.5
20260902182523 56 311 3.5 10.4 0.00 0.01 0.00 78 1016.6
20260902182019 56 313 4.3 10.4 0.00 0.01 0.00 78 1016.5
20260902181533 56 298 1.7 7.8 0.00 0.01 0.00 78 1016.6
20260902181023 56 318 3.5 7.8 0.00 0.01 0.00 77 1016.5
20260902180516 56 303 2.6 13.0 0.00 0.01 0.00 77 1016.5
20260902180043 56 281 3.5 13.0 0.00 0.01 0.00 77 1016.5
20260902175516 56 320 2.6 7.8 0.00 0.01 0.00 77 1016.5
20260902175018 56 311 2.6 7.8 0.00 0.01 0.00 76 1016.4
20260902174535 56 300 2.6 7.0 0.00 0.01 0.00 76 1016.4
20260902174019 56 281 2.6 7.0 0.00 0.01 0.00 76 1016.6
20260902173520 56 305 1.7 7.8 0.00 0.01 0.00 75 1016.6
20260902173035 56 289 1.7 7.8 0.00 0.01 0.00 75 1016.5
20260902172519 56 309 1.7 7.8 0.00 0.01 0.00 75 1016.6
20260902172019 56 257 3.5 7.8 0.00 0.01 0.00 75 1016.7
20260902171538 56 296 2.6 7.8 0.00 0.01 0.00 74 1016.6
20260902171020 56 256 4.3 7.8 0.00 0.01 0.00 74 1016.8
20260902170515 56 280 2.6 8.7 0.00 0.01 0.00 74 1016.6
20260902170035 56 299 2.6 8.7 0.00 0.01 0.00 74 1016.9
20260902165520 56 316 3.5 8.7 0.00 0.01 0.00 73 1016.8
20260902165017 56 302 2.6 7.0 0.00 0.01 0.00 73 1016.8
20260902164535 56 269 2.6 9.6 0.00 0.01 0.00 73 1017.0
20260902164017 56 292 1.7 9.6 0.00 0.01 0.00 72 1017.0
20260902163516 56 310 3.5 9.6 0.00 0.01 0.00 72 1017.0
20260902163033 56 304 2.6 8.7 0.00 0.01 0.00 72 1017.0
20260902162518 56 313 2.6 8.7 0.00 0.01 0.00 72 1017.1
20260902162018 56 297 3.5 8.7 0.00 0.01 0.00 73 1017.0
20260902161537 56 290 1.7 7.0 0.00 0.01 0.00 73 1017.3
20260902161018 56 291 0.9 7.0 0.00 0.01 0.00 73 1017.2
20260902160515 56 295 1.7 7.0 0.00 0.01 0.00 73 1017.4
20260902160037 56 269 0.9 5.2 0.00 0.01 0.00 73 1017.2
20260902155518 56 267 0.0 5.2 0.00 0.01 0.00 73 1017.3
20260902155020 56 269 0.9 6.1 0.00 0.01 0.00 73 1017.2
20260902154533 56 311 1.7 6.1 0.00 0.01 0.00 73 1017.3
20260902154019 56 0 0.9 7.8 0.00 0.01 0.00 73 1017.1
20260902153516 56 267 1.7 7.8 0.00 0.01 0.00 74 1017.3
20260902153039 56 273 2.6 7.8 0.00 0.01 0.00 74 1017.3
20260902152519 55 270 3.5 7.0 0.00 0.01 0.00 74 1017.5
20260902152018 55 0 1.7 7.8 0.00 0.01 0.00 75 1017.4
20260902151544 55 312 2.6 7.8 0.00 0.01 0.00 75 1017.4
20260902151016 55 285 2.6 7.0 0.00 0.01 0.00 75 1017.4
20260902150517 55 284 1.7 7.0 0.00 0.01 0.00 75 1017.4
20260902150037 55 283 1.7 6.1 0.00 0.01 0.00 75 1017.4
20260902145521 55 282 1.7 6.1 0.00 0.01 0.00 76 1017.3
20260902145017 55 278 1.7 7.8 0.00 0.01 0.00 76 1017.4
20260902144538 55 280 1.7 7.8 0.00 0.01 0.00 76 1017.3
20260902144018 55 277 2.6 7.8 0.00 0.01 0.00 76 1017.6
20260902143516 55 296 2.6 7.0 0.00 0.01 0.00 76 1017.4
20260902143036 55 286 0.9 6.1 0.00 0.01 0.00 77 1017.5
20260902142516 55 282 1.7 6.1 0.00 0.01 0.01 77 1017.4
20260902142016 55 281 1.7 6.1 0.00 0.01 0.01 77 1017.7
20260902141536 55 278 1.7 6.1 0.00 0.01 0.01 77 1017.6
20260902141021 55 277 0.9 5.2 0.00 0.01 0.01 77 1017.7
20260902140520 55 275 0.9 6.1 0.00 0.01 0.01 77 1017.8
20260902140036 55 274 0.9 6.1 0.00 0.01 0.01 77 1017.7
20260902135519 55 281 1.7 5.2 0.00 0.01 0.01 77 1017.9
20260902135019 55 284 0.9 6.1 0.00 0.01 0.01 77 1017.9
20260902134536 55 284 1.7 6.1 0.00 0.01 0.01 77 1018.0
20260902134016 55 284 0.9 6.1 0.00 0.01 0.01 77 1018.0
20260902133518 55 285 1.7 6.1 0.00 0.01 0.01 77 1017.9
20260902133035 54 277 0.9 5.2 0.00 0.01 0.01 77 1018.0
20260902132516 54 272 0.9 3.5 0.00 0.01 0.01 76 1018.0
20260902132015 54 270 0.0 3.5 0.00 0.01 0.01 76 1018.0
20260902131535 54 269 0.0 1.7 0.00 0.01 0.01 76 1018.0
20260902131019 54 0 0.0 1.7 0.00 0.01 0.01 75 1018.0
20260902130519 54 0 0.0 1.7 0.00 0.01 0.01 75 1018.0
20260902130037 54 0 0.0 1.7 0.00 0.01 0.01 75 1018.0
20260902125519 54 0 0.0 1.7 0.00 0.01 0.01 74 1018.0
20260902125020 54 0 0.0 0.0 0.00 0.01 0.01 74 1018.1
20260902124535 54 0 0.0 0.0 0.00 0.01 0.01 74 1018.1
20260902124016 54 0 0.0 0.0 0.00 0.01 0.01 74 1018.0
20260902123517 55 0 0.0 0.0 0.00 0.01 0.01 74 1018.1
20260902123034 55 0 0.0 0.0 0.00 0.01 0.01 74 1018.1
20260902122518 55 0 0.0 0.0 0.00 0.01 0.01 74 1018.2
20260902122019 55 0 0.0 0.9 0.00 0.01 0.01 74 1018.2
20260902121535 55 0 0.0 1.7 0.00 0.01 0.01 74 1018.3
20260902121021 55 0 0.0 1.7 0.00 0.01 0.01 74 1018.2
20260902120517 55 0 0.0 1.7 0.00 0.01 0.01 73 1018.3
20260902120034 55 0 0.0 2.6 0.00 0.01 0.01 73 1018.4
20260902115519 55 0 0.0 2.6 0.00 0.01 0.01 73 1018.3
20260902115019 56 0 0.0 2.6 0.00 0.01 0.01 73 1018.2
20260902114535 56 0 0.0 3.5 0.00 0.01 0.01 73 1018.1
20260902114023 56 0 0.0 3.5 0.00 0.01 0.01 73 1017.9
20260902113516 56 269 0.0 3.5 0.00 0.01 0.01 73 1018.0
20260902113031 56 270 0.0 2.6 0.00 0.01 0.01 73 1017.9
20260902112518 56 272 0.0 1.7 0.00 0.01 0.01 72 1018.0
20260902112019 56 0 0.0 2.6 0.00 0.01 0.01 72 1017.8
20260902111535 56 272 0.9 3.5 0.00 0.01 0.01 72 1017.7
20260902111017 56 273 0.9 3.5 0.00 0.01 0.01 72 1017.7
20260902110516 56 0 0.0 6.1 0.00 0.01 0.01 72 1017.7
20260902110033 56 273 2.6 6.1 0.00 0.01 0.01 71 1017.6
20260902105518 56 244 1.7 5.2 0.00 0.01 0.01 71 1017.8
20260902105019 56 253 0.9 5.2 0.00 0.01 0.01 71 1017.8
20260902104540 56 250 1.7 5.2 0.00 0.01 0.01 71 1017.8
20260902104019 56 268 1.7 7.8 0.00 0.01 0.01 70 1017.7
20260902103516 56 217 1.7 7.8 0.00 0.01 0.01 70 1017.7
20260902103036 56 238 3.5 11.3 0.00 0.01 0.01 69 1017.7
20260902102515 56 258 2.6 11.3 0.00 0.01 0.01 69 1017.5
20260902102016 56 288 0.9 3.5 0.00 0.01 0.01 68 1017.4
20260902101536 56 288 1.7 3.5 0.00 0.01 0.01 68 1017.2
20260902101017 56 0 0.0 4.3 0.00 0.01 0.01 67 1017.4
20260902100519 56 0 0.9 4.3 0.00 0.01 0.01 67 1017.4
20260902100034 56 288 0.0 4.3 0.00 0.01 0.01 67 1017.3
20260902095518 56 288 0.9 4.3 0.00 0.01 0.01 67 1017.2
20260902095018 56 290 0.9 4.3 0.00 0.01 0.01 67 1017.2
20260902094533 56 290 0.9 4.3 0.00 0.01 0.01 67 1017.2
20260902094017 55 290 0.9 6.1 0.00 0.01 0.01 67 1017.2
20260902093516 55 291 1.7 6.1 0.00 0.01 0.01 68 1017.2
20260902093037 56 294 1.7 4.3 0.00 0.01 0.01 69 1017.1
20260902092519 56 294 0.9 4.3 0.00 0.01 0.01 69 1017.1
20260902092018 56 293 0.9 3.5 0.00 0.01 0.01 68 1017.1
20260902091531 56 294 0.0 2.6 0.00 0.01 0.01 68 1017.0
20260902091016 56 294 0.9 2.6 0.00 0.01 0.01 68 1017.0
20260902090516 56 294 0.0 4.3 0.00 0.01 0.01 68 1017.0
20260902090034 56 294 0.9 4.3 0.00 0.01 0.01 67 1017.0
20260902085516 56 294 0.9 4.3 0.00 0.01 0.01 67 1017.1
20260902085018 56 296 1.7 4.3 0.00 0.01 0.01 66 1016.9
20260902084534 56 0 0.9 4.3 0.00 0.01 0.01 66 1016.9
20260902084017 56 296 0.9 4.3 0.00 0.01 0.01 66 1016.7
20260902083515 57 298 0.0 3.5 0.00 0.01 0.01 66 1016.6
20260902083032 57 298 0.9 7.0 0.00 0.01 0.01 66 1016.6
20260902082522 57 300 0.9 7.0 0.00 0.01 0.01 66 1016.6
20260902082020 57 252 2.6 7.0 0.00 0.01 0.01 65 1016.6
20260902081535 57 264 0.9 6.1 0.00 0.01 0.01 65 1016.5
20260902081016 58 267 2.6 7.0 0.00 0.01 0.01 65 1016.6
20260902080516 58 258 2.6 7.0 0.00 0.01 0.01 65 1016.6
20260902080034 58 261 1.7 8.7 0.00 0.01 0.01 65 1016.5
20260902075521 58 294 3.5 8.7 0.00 0.01 0.01 65 1016.5
20260902075015 58 284 1.7 6.1 0.00 0.01 0.01 66 1016.5
20260902074535 58 280 1.7 7.8 0.00 0.01 0.01 66 1016.6
20260902074016 58 280 1.7 7.8 0.00 0.01 0.01 66 1016.6
20260902073515 58 272 1.7 7.8 0.00 0.01 0.01 66 1016.5
20260902073034 58 290 1.7 7.0 0.00 0.01 0.01 66 1016.5
20260902072515 58 298 1.7 7.0 0.00 0.10 0.01 66 1016.5
20260902072023 58 297 1.7 7.0 0.00 0.10 0.01 66 1016.5
20260902071534 58 305 2.6 7.0 0.00 0.10 0.01 66 1016.5
20260902071019 58 212 0.9 7.0 0.00 0.10 0.01 66 1016.6
20260902070518 58 208 0.0 7.0 0.00 0.10 0.01 65 1016.5
20260902070033 58 200 1.7 7.0 0.00 0.10 0.01 65 1016.7
20260902065519 59 234 1.7 5.2 0.00 0.10 0.01 65 1016.7
20260902065016 59 229 1.7 6.1 0.00 0.10 0.01 64 1016.6
20260902064532 59 224 2.6 7.0 0.00 0.10 0.01 64 1016.5
20260902064015 59 233 1.7 7.0 0.00 0.10 0.01 64 1016.5
20260902063522 59 227 1.7 7.0 0.00 0.10 0.01 63 1016.5
20260902063042 59 0 0.9 6.1 0.00 0.10 0.01 63 1016.5
20260902062523 59 210 1.7 6.1 0.00 0.14 0.01 63 1016.5
20260902062019 60 192 1.7 6.1 0.00 0.14 0.01 63 1016.5
20260902061548 60 271 0.9 5.2 0.00 0.14 0.01 62 1016.5
20260902061019 60 270 1.7 5.2 0.00 0.14 0.01 61 1016.5
20260902060518 60 271 1.7 6.1 0.00 0.14 0.01 61 1016.6
20260902060031 61 274 1.7 6.1 0.00 0.14 0.01 61 1016.6
20260902055519 61 260 0.9 5.2 0.00 0.14 0.01 61 1016.6
20260902055019 61 262 1.7 5.2 0.00 0.14 0.01 61 1016.6
20260902054535 61 259 1.7 7.0 0.00 0.14 0.01 60 1016.6
20260902054018 61 247 2.6 7.0 0.00 0.14 0.01 60 1016.6
20260902053518 61 247 1.7 4.3 0.00 0.14 0.01 60 1016.6
20260902053031 61 247 0.9 7.0 0.00 0.14 0.01 60 1016.7
20260902052522 61 259 1.7 7.0 0.00 0.14 0.01 59 1016.7
20260902052017 61 263 1.7 5.2 0.00 0.14 0.01 59 1016.8
20260902051534 61 269 0.9 5.2 0.00 0.14 0.01 60 1016.8
20260902051019 61 268 1.7 5.2 0.00 0.14 0.01 60 1016.8
20260902050519 61 255 0.0 5.2 0.00 0.14 0.01 59 1016.8
20260902050056 61 255 1.7 7.0 0.00 0.14 0.01 60 1016.9
20260902045518 61 260 1.7 7.0 0.00 0.14 0.01 59 1016.8
20260902045022 61 288 0.9 6.1 0.00 0.14 0.01 60 1016.9
20260902044536 61 286 1.7 6.1 0.00 0.14 0.01 59 1016.9
20260902044021 61 290 1.7 7.0 0.00 0.14 0.01 58 1016.9
20260902043518 61 300 1.7 7.0 0.00 0.14 0.01 58 1016.9
20260902043037 61 278 1.7 6.1 0.00 0.14 0.01 58 1017.0
20260902042521 61 282 1.7 6.1 0.00 0.14 0.01 58 1016.9
20260902042020 61 282 1.7 6.1 0.00 0.14 0.01 58 1016.8
20260902041535 61 303 1.7 9.6 0.00 0.14 0.01 59 1017.1
20260902041018 62 281 2.6 9.6 0.00 0.14 0.01 58 1017.0
20260902040519 62 255 1.7 7.8 0.00 0.14 0.01 57 1017.0
20260902040035 62 257 2.6 8.7 0.00 0.14 0.01 58 1017.2
20260902035518 62 260 3.5 8.7 0.00 0.14 0.01 59 1017.3
20260902035022 62 257 4.3 8.7 0.00 0.14 0.01 59 1017.3
20260902034532 62 277 1.7 7.8 0.00 0.14 0.01 59 1017.2
20260902034023 62 304 2.6 7.8 0.00 0.14 0.01 60 1017.2
20260902033515 62 250 1.7 8.7 0.00 0.14 0.01 61 1017.3
20260902033052 62 286 0.9 8.7 0.00 0.14 0.01 60 1017.3
20260902032520 62 280 2.6 8.7 0.00 0.14 0.01 60 1017.2
20260902032023 63 0 1.7 8.7 0.00 0.14 0.01 60 1017.3
20260902031532 63 230 2.6 7.0 0.00 0.14 0.01 60 1017.3
20260902031019 63 228 1.7 7.8 0.00 0.14 0.01 61 1017.4
20260902030518 63 200 3.5 8.7 0.00 0.14 0.01 61 1017.4
20260902030034 63 268 2.6 8.7 0.00 0.14 0.01 61 1017.4
20260902025520 63 298 2.6 7.0 0.00 0.14 0.01 62 1017.4
20260902025016 62 307 2.6 7.8 0.00 0.14 0.01 62 1017.4
20260902024543 61 315 1.7 7.8 0.00 0.14 0.01 62 1017.5
20260902024018 61 261 1.7 7.8 0.00 0.14 0.01 62 1017.7
20260902023515 61 259 1.7 7.8 0.00 0.14 0.01 62 1017.8
20260902023036 61 234 1.7 4.3 0.00 0.14 0.01 63 1017.9
20260902022518 61 252 0.9 5.2 0.00 0.14 0.01 63 1017.8
20260902022019 61 255 1.7 5.2 0.00 0.14 0.01 63 1017.7
20260902021534 61 271 1.7 5.2 0.00 0.14 0.01 64 1017.8
20260902021019 61 265 1.7 5.2 0.00 0.14 0.01 64 1017.9
20260902020519 60 281 0.9 5.2 0.00 0.14 0.01 65 1017.9
20260902020038 60 281 1.7 6.1 0.00 0.14 0.01 65 1018.1
20260902015519 60 279 1.7 6.1 0.00 0.14 0.01 65 1018.0
20260902015018 60 250 0.9 5.2 0.00 0.14 0.01 66 1018.1
20260902014534 60 263 1.7 5.2 0.00 0.14 0.01 67 1018.2
20260902014015 60 0 0.9 7.0 0.00 0.14 0.01 67 1018.2
20260902013516 60 271 1.7 7.0 0.00 0.14 0.01 67 1018.2
20260902013035 60 259 3.5 7.0 0.00 0.14 0.01 67 1018.3
20260902012521 60 263 2.6 6.1 0.00 0.14 0.01 68 1018.5